World > North America > United States > Utah

Ballard, Utah Regional Weather

Lat: 40.28N, Lon: 109.95W
Wx Zone: UTZ011Web Search

Helpful Tip: Type the letters wx in the search engine next time you need to find us.

Feedback


°F Click to change Ballard hourly weather to Imperial units.Click to change Ballard hourly weather to Metric units. °C
Ballard Weather Map
UTC Time: 4/17/2021, 23:20
Your Time:

Ballard, UT Regional Weather

Expires:202104180000;;713033
ASUS45 KSLC 172310
RWRUT 

UTAH REGIONAL WEATHER ROUNDUP
NATIONAL WEATHER SERVICE SALT LAKE CITY UT
500 PM MDT SAT APR 17 2021


UTZ011>015-024>027-180000-

CENTRAL/NORTHEAST UTAH
  
CITY           SKY/WX    TMP DP  RH WIND       PRES   REMARKS
PROVO AIRPORT  MOSUNNY   55  25  31 NW16      30.17F                  
MOAB/CANYONLAN SUNNY     57  10  15 NW8G22    30.06F                  
MANTI          MOCLDY    51  16  24 N10       30.14F                  
PRICE          MOSUNNY   51  10  19 NE16G25   30.15S                  
RICHFIELD      PTSUNNY   52  16  24 NE10G22   30.12F                  
ROOSEVELT      MOSUNNY   52  18  25 E16       30.19F                  
DUCHESNE       PTCLDY    48  12  23 E5G16     30.19F                  
VERNAL         MOSUNNY   51  14  22 NE21G32   30.18F                  

$$


SKY/WX - Weather  TMP - Temperature  DP - Dew Point  RH - Relative Humidity
WIND - Wind Direction/Speed PRES - Barometric Pressure VSB - Visibility
WCI - Wind Chill Index E13G22 Wind - East Wind 13 mph/Gusts of 22 mph